Regional Weather Roundup
Issued by NWS

Home | Current Version | Previous Version | Graphics & Text | Print | Product List | Glossary On
Versions: 1 2 3 4 5 6 7 8 9 10 11 12 13 14 15 16 17 18 19 20 21 22 23 24 25 26 27 28 29 30 31 32 33 34 35 36 37 38 39 40 41 42 43 44 45 46 47 48 49 50
000
ASUS43 KMPX 141410
RWRMN
WEATHER ROUNDUP FOR MINNESOTA
NATIONAL WEATHER SERVICE TWIN CITIES/CHANHASSEN MN
900 AM CDT MON JUL 14 2014


NOTE: "FAIR" INDICATES FEW OR NO CLOUDS BELOW 12,000 FEET WITH NO
SIGNIFICANT WEATHER AND/OR OBSTRUCTIONS TO VISIBILITY. N/A MEANS
CURRENT SKY AND/OR WEATHER CONDITIONS ARE NOT AVAILABLE.

MNZ060>063-068>070-141500-
   Twin Cities Metro

CITY           SKY/WX    TMP DP  RH WIND       PRES   REMARKS
TWIN CITIES    PTSUNNY   62  47  57 NW21G29   29.92R
ST PAUL        CLOUDY    61  48  62 NW16G26   29.91R HAZE
CRYSTAL        MOSUNNY   61  45  55 NW17G31   29.92R
BLAINE         PTSUNNY   63  48  59 MISG      29.92R
LAKEVILLE      PTSUNNY   63  52  67 W14G21    29.92S
EDEN PRAIRIE   PTSUNNY   62  47  57 NW16      29.92R
SOUTH ST PAUL  CLOUDY    63  47  56 NW16      29.91R
LAKE ELMO      PTSUNNY   61  50  67 NW15G23   29.91S
$$
MNZ001>005-007-008-013>017-022>024-027-028-141500-
   Northwest Minnesota

CITY           SKY/WX    TMP DP  RH WIND       PRES   REMARKS
BEMIDJI        CLOUDY    50  47  90 NW18      29.97R
HALLOCK        CLOUDY    54  48  82 N16G22    30.08S
ROSEAU         CLOUDY    52  46  82 NW17G24   30.03R
WARROAD        CLOUDY    52  46  82 NW13G20   30.01R
THIEF RVR FALL CLOUDY    50  46  87 NW16      30.04R
CROOKSTON      CLOUDY    52  46  82 N20G28    30.08R
FOSSTON        CLOUDY    48  46  93 NW13      30.03R FOG
DETROIT LAKES  CLOUDY    50  46  87 NW22G29   30.04R
MOORHEAD       MOSUNNY   55  50  82 N21G29    30.08R
PARK RAPIDS    CLOUDY    50  46  86 NW18G28   29.98R
$$
MNZ006-009>011-018-025>026-141500-
   North Central Minnesota

CITY           SKY/WX    TMP DP  RH WIND       PRES   REMARKS
BAUDETTE       LGT RAIN  55  52  89 N20       29.96R
FLAG ISLAND    CLOUDY    55  52  88 N22G28    29.97R
INTL FALLS     CLOUDY    55  51  86 N15       29.89R
WASKISH        LGT RAIN  52  52 100 NW5       29.94R
BIG FORK       PTSUNNY   52  48  87 NW6       29.90R
LONGVILLE      RAIN      52  48  87 NW12G21   29.92R
GRAND RAPIDS   CLOUDY    52  46  82 NW16      29.88S
CRANE LAKE     LGT RAIN  50  48  93 N10G17    29.87R
ORR            DRIZZLE   52  46  82 CALM      29.84R
COOK           LGT RAIN  50  48  93 NW6       29.85R
$$
MNZ012-019>021-037-141500-
   Northeast Minnesota

CITY           SKY/WX    TMP DP  RH WIND       PRES   REMARKS
DULUTH         LGT RAIN  52  48  86 NW10      29.84R FOG
ELY            CLOUDY    52  48  87 NW5       29.82R
HIBBING        LGT RAIN  52  48  86 N13       29.85R
EVELETH        RAIN      50  46  87 NW7       29.84R
DULUTH HARBOR  RAIN      55  50  82 W12G18    29.85S
TWO HARBORS    PTSUNNY   55  46  71 CALM      29.81S
SILVER BAY     MOSUNNY   52  50  93 CALM      29.81R
GRAND MARAIS     N/A     45  45 100 SW3       29.82R
G MARAIS ARPRT RAIN      50  46  87 CALM      29.82R
$$
MNZ029>031-032-039>041-046>048-054>057-064-141500-
   West Central Minnesota

CITY           SKY/WX    TMP DP  RH WIND       PRES   REMARKS
FERGUS FALLS   CLOUDY    52  43  71 N16G26    30.07R
WHEATON        MOSUNNY   54  45  71 N18G26    30.10R
MORRIS         SUNNY     55  46  71 NW20G28   30.05R
ALEXANDRIA     CLOUDY    53  46  77 NW15G29   30.02R
WADENA         CLOUDY    52  45  76 NW15G23   30.00R
GLENWOOD       CLOUDY    54  45  71 NW16G22   30.02R
APPLETON       MOSUNNY   59  45  58 N20G29    30.05R
BENSON         PTSUNNY   55  45  67 N20G30    30.04R
ORTONVILLE     PTSUNNY   57  45  62 NW21G29   30.06R
MADISON        MOSUNNY   63  48  59 N22       30.06R
WILLMAR        FAIR      57  43  58 NW23      30.02R
$$
MNZ033>034-036-042>043-049>051-058-059-141500-
   Central Minnesota

CITY           SKY/WX    TMP DP  RH WIND       PRES   REMARKS
ST CLOUD       MOSUNNY   57  43  58 N20G29    29.96R
SAUK CENTRE    CLOUDY    54  44  69 NW21G29   29.99R
PAYNESVILLE    MOSUNNY   52  44  73 W21G26    29.99R
AITKIN         MIX PCPN  54  46  76 W6        29.91R
PINE RIVER     CLOUDY    52  46  82 NW13G21   29.98R
BRAINERD       CLOUDY    56  46  69 NW17G24   29.95R
STAPLES        CLOUDY    52  45  76 NW13G24   29.98S
LONG PRAIRIE   CLOUDY    52  43  71 NW13G23   29.99R
LITTLE FALLS   PTSUNNY   52  43  71 NW13G18   29.97R
LITCHFIELD     MOSUNNY   57  52  82 NW20G26   29.98R
BUFFALO        CLOUDY    58  44  60 NW15G22   29.96R
MAPLE LAKE     CLOUDY    58  47  66 NW12G21   29.96R
$$
MNZ037-044-045-052-053-141500-
   East Central Minnesota

CITY           SKY/WX    TMP DP  RH WIND       PRES   REMARKS
PRINCETON      MOSUNNY   55  46  71 W17G26    29.94R
MORA           PTSUNNY   55  45  67 NW12G22   29.92S
CAMBRIDGE      MOSUNNY   61  46  59 W12G21    29.90S
RUSH CITY      MOSUNNY   58  48  69 NW8G17    29.91R
MOOSE LAKE     CLOUDY    54  46  76 NW7G17    29.86S
HINCKLEY       PTSUNNY   57  48  72 NW13G20   29.90R
CLOQUET        CLOUDY    54  46  76 W10G17    29.85S
MCGREGOR       CLOUDY    54  46  76 NW13G20   29.89S
$$
MNZ071>073-080-081-089-090-097-098-141500-
   Southwest Minnesota

CITY           SKY/WX    TMP DP  RH WIND       PRES   REMARKS
MONTEVIDEO     MOSUNNY   59  46  63 N18G28    30.05R
GRANITE FALLS  PTSUNNY   59  47  64 NW17G24   30.04R
CANBY          PTSUNNY   61  49  64 NW20G26   30.07R
MARSHALL       MOSUNNY   61  46  59 NW21G30   30.02S
REDWOOD FALLS  SUNNY     62  48  60 NW17G26   30.00R
OLIVIA         MOSUNNY   59  46  63 NW22G29   29.99S
PIPESTONE      SUNNY     61  52  72 N14       30.06S
WINDOM         MOSUNNY   63  50  63 NW16G25   30.02R
WORTHINGTON    CLOUDY    61  48  63 NW17      30.05R
JACKSON        CLOUDY    61  48  63 NW17      30.03R
TRACY          MOSUNNY   62  49  62 NW14G23   30.04R
SLAYTON        MOSUNNY   60  47  62 NW17      30.05S
$$
MNZ065>067-074>077-082>085-091>093-141500-
   South Central Minnesota

CITY           SKY/WX    TMP DP  RH WIND       PRES   REMARKS
MANKATO        SUNNY     63  46  55 NW20G25   29.96S
ST JAMES       PTSUNNY   63  52  67 NW15      30.01R
FAIRMONT       MOSUNNY   64  45  48 NW16      30.00R
GLENCOE        MOSUNNY   60  47  62 NW17G28   29.95S
FARIBAULT      MOSUNNY   66  48  52 W16       29.94S
OWATONNA       SUNNY     63  48  59 NW16      29.95R
WASECA         SUNNY     61  45  55 NW18G25   29.98R
ALBERT LEA     CLOUDY    61  50  67 NW7       29.96S
$$
MNZ078>079-086>088-094>096-141500-
   Southeast Minnesota

CITY           SKY/WX    TMP DP  RH WIND       PRES   REMARKS
ROCHESTER      MOSUNNY   63  51  65 NW13G20   29.94S
RED WING       SUNNY     66  50  55 N14G20    29.89S
STANTON        SUNNY     64  51  62 W17G23    29.91S
DODGE CENTER   SUNNY     63  52  67 NW16G24   29.93S
WINONA         CLOUDY    61  52  72 NW5       29.90S
AUSTIN         MOSUNNY   63  50  63 NW17      29.94S
PRESTON        CLOUDY    62  53  72 NW12      29.93S
$$
ABBREVIATIONS USED IN REMARKS
   TC - TEMPERATURES IN CELSIUS
  WCI - WIND CHILL INDEX
   HX - HEAT INDEX
  VSB - VISIBILITY
$$



USA.gov is the U.S. government's official web portal to all federal, state and local government web resources and services.